Flag for Portugal Weather past 2 weeks in Faro, Portugal

Now
46 °F

Clear.


Feels Like: 46 °F
Forecast: 45 / 64 °F
Wind: 2 mph from North

Location: Faro / Aeroporto

Current Time: Jan 28, 2015 at 6:54:56 AM

Latest Report: Jan 28, 2015 at 6:00 AM


Visibility: 10 mi

Pressure: 30.27 "Hg

Humidity: 76%

Dew point: 39 °F

Location of FaroLocation

Historic Weather in Faro — Graph

°F

Faro temperature yesterday

Maximum temperature yesterday: 63 °F (at 12:30 PM)
Minimum temperature yesterday: 41 °F (at 7:00 AM)
Average temperature yesterday: 52 °F

Past Weeks' High & Low Weather Summary

 TemperatureHumidityPressure
High72 °F (Jan 25, 2:52 PM)100% (Jan 13, 8:00 AM)30.39 "Hg (Jan 13, 8:00 AM)
Low39 °F (Jan 25, 5:30 AM)31% (Jan 25, 2:52 PM)29.77 "Hg (Jan 18, 2:00 PM)
Average53 °F75%30.18 "Hg
* Reported Jan 13 5:00 AM — Jan 28 5:30 AM, Faro, Weather by CustomWeather, © 2014

Note: Actual official high and low records may vary slightly from our data, if they occured in-between our weather recording intervals... More about our weather records

Advertising

Faro weather history for previous 24 hours

 ConditionsComfort  
Time TempWeatherWind HumidityBarometerVisibility
5:30 AM
Jan 28
48 °FPassing clouds.5 mph76%30.27 "HgN/A
5:00 AM48 °FClear.2 mph82%30.30 "Hg10 mi
4:30 AM48 °FClear.3 mph82%30.30 "Hg10 mi
4:00 AM48 °FPassing clouds.3 mph82%30.30 "HgN/A
3:30 AM46 °FClear.2 mph76%30.30 "Hg10 mi
3:00 AM52 °FClear.7 mph72%30.30 "Hg10 mi
2:30 AM46 °FPassing clouds.3 mph82%30.30 "HgN/A
2:00 AM48 °FClear.3 mph82%30.30 "Hg10 mi
1:30 AM48 °FClear.No wind82%30.30 "Hg10 mi
1:00 AM48 °FPassing clouds.3 mph76%30.33 "HgN/A
12:30 AM48 °FClear.3 mph76%30.33 "Hg10 mi
12:00 AM48 °FClear.6 mph82%30.33 "Hg10 mi
11:30 PM
Jan 27
50 °FClear.7 mph76%30.33 "Hg10 mi
11:00 PM50 °FClear.5 mph76%30.33 "Hg10 mi
10:30 PM50 °FPassing clouds.5 mph82%30.33 "HgN/A
10:00 PM52 °FClear.5 mph77%30.33 "Hg10 mi
9:00 PM50 °FClear.5 mph82%30.33 "Hg10 mi
8:30 PM50 °FClear.2 mph88%30.33 "Hg10 mi
8:00 PM54 °FClear.2 mph82%30.33 "Hg10 mi
7:30 PM54 °FClear.2 mph77%30.33 "Hg10 mi
7:00 PM55 °FClear.2 mph77%30.33 "Hg10 mi
6:30 PM57 °FClear.2 mph72%30.33 "Hg10 mi
6:00 PM57 °FClear.No wind72%30.33 "Hg10 mi
5:30 PM59 °FSunny.3 mph72%30.33 "Hg10 mi
5:00 PM59 °FSunny.5 mph72%30.33 "Hg10 mi
4:30 PM59 °FSunny.6 mph68%30.33 "Hg10 mi
4:00 PM59 °FPassing clouds.6 mph68%30.33 "HgN/A
3:30 PM59 °FSunny.7 mph68%30.33 "Hg10 mi
3:00 PM59 °FSunny.7 mph68%30.33 "Hg10 mi
2:30 PM59 °FPassing clouds.7 mph72%30.33 "HgN/A
2:00 PM61 °FPassing clouds.7 mph68%30.33 "HgN/A
1:30 PM61 °FPassing clouds.6 mph59%30.36 "HgN/A
1:00 PM61 °FSunny.6 mph52%30.36 "Hg10 mi
12:30 PM63 °FPassing clouds.5 mph49%30.36 "HgN/A
12:00 PM61 °FPassing clouds.6 mph59%30.39 "HgN/A
11:30 AM61 °FPassing clouds.3 mph55%30.39 "HgN/A
11:00 AM61 °FPassing clouds.3 mph48%30.39 "HgN/A
10:51 AM61 °FPassing clouds.3 mph48%30.39 "HgN/A
10:30 AM57 °FSunny.3 mph63%30.39 "Hg10 mi
10:00 AM54 °FSunny.No wind67%30.39 "Hg10 mi
9:30 AM54 °FSunny.3 mph72%30.36 "Hg10 mi
9:00 AM50 °FSunny.2 mph76%30.36 "Hg10 mi
8:30 AM46 °FSunny.7 mph82%30.36 "Hg10 mi
8:02 AM46 °FPassing clouds.5 mph82%30.36 "HgN/A
8:00 AM43 °FPassing clouds.3 mph81%30.36 "HgN/A
7:30 AM45 °FPassing clouds.3 mph81%30.36 "HgN/A
7:00 AM41 °FPassing clouds.3 mph87%30.33 "HgN/A
6:30 AM43 °FClear.3 mph87%30.33 "Hg10 mi
6:00 AM43 °FClear.No wind87%30.33 "Hg10 mi
Weather by CustomWeather, © 2014

See weather overviewHow to use our weather pages